Vertical_Velocity
-8 15 -1 -4 6 1 3 -4 -13 -12 -7 4 10 5 -1 1 0 -1 2 -3 -7 -1
-2 24 21 16 15 12 1 0 5 1 4 6 6 -2 -8 4 -1 -1 -2 -0 0 5
2 -2 4 4 -1 14 -12 4 -4 -5 6 3 -2 -2 3 4 -1 -3 4 2 -0 1
-1 -10 12 7 -3 -8 -5 3 7 2 -1 0 -1 4 4 -0 -2 9 1 -3 -2 2
5 -3 -2 2 1 -4 8 -3 6 0 -3 2 5 -2 -1 7 -1 1 1 -1 1 2
11 18 7 4 -5 -5 1 2 -1 3 4 6 1 -5 6 -2 3 0 -1 2 2 2
-5 6 -3 1 -0 -2 10 -0 -7 -5 -7 -1 10 -1 -1 2 1 -3 -0 1 1 1
-3 -5 -3 4 -0 -6 -12 9 18 9 -1 5 1 -2 3 1 -2 -1 1 2 1 -1
-1 -4 -0 -0 -1 -1 -0 -3 1 -1 -3 -6 0 3 1 -1 1 -1 2 3 2 1
-7 -5 -3 5 10 5 3 -0 -4 0 4 2 2 4 3 2 1 3 2 1 -0 -1
-1 -0 -1 3 -8 -0 -1 -2 0 1 2 2 1 2 0 1 1 2 -1 -5 -3 0
-0 -3 -7 -10 -6 -5 -3 -2 -1 0 1 0 0 1 2 0 -4 -2 -2 1 5 2
6 7 7 7 5 4 3 3 4 5 4 2 -2 -3 -3 -2 -1 3 5 1 1 1
3 2 1 -1 -0 2 1 2 2 2 1 -2 -2 -2 1 3 5 3 1 4 1 -1
Height
3059 3065 3068 3072 3075 3080 3084 3089 3095 3096 3096 3098 3100 3102 3104 3104 3106 3105 3106 3106 3106 3105
3058 3060 3064 3068 3072 3074 3078 3082 3086 3087 3088 3090 3092 3093 3096 3098 3098 3098 3099 3098 3098 3097
3055 3057 3060 3064 3067 3068 3072 3075 3078 3080 3082 3085 3085 3086 3087 3088 3089 3091 3091 3091 3090 3089
3051 3053 3054 3059 3062 3066 3067 3067 3071 3073 3076 3076 3078 3080 3081 3081 3082 3084 3083 3083 3084 3085
3047 3050 3053 3055 3057 3061 3062 3065 3066 3068 3071 3072 3072 3073 3075 3075 3076 3076 3076 3077 3079 3078
3045 3044 3047 3049 3053 3055 3057 3060 3060 3061 3063 3065 3066 3068 3067 3068 3069 3069 3070 3072 3073 3072
3042 3043 3043 3044 3046 3050 3051 3052 3053 3054 3058 3060 3059 3062 3062 3062 3062 3063 3065 3066 3067 3066
3039 3039 3040 3041 3041 3043 3046 3047 3048 3049 3055 3055 3054 3056 3055 3055 3055 3057 3058 3059 3059 3060
3033 3035 3035 3037 3037 3038 3040 3043 3045 3047 3048 3049 3049 3048 3048 3048 3048 3050 3052 3052 3052 3052
3031 3033 3034 3036 3033 3035 3037 3038 3040 3042 3041 3041 3041 3040 3040 3040 3042 3044 3045 3045 3045 3044
3030 3029 3031 3029 3031 3034 3033 3034 3035 3035 3035 3034 3033 3032 3033 3035 3037 3037 3038 3037 3037 3036
3025 3025 3025 3026 3027 3027 3028 3027 3027 3027 3027 3026 3026 3027 3028 3029 3029 3029 3029 3028 3028 3026
3018 3019 3019 3019 3018 3018 3018 3019 3019 3020 3020 3019 3020 3020 3020 3021 3021 3021 3020 3019 3018 3016
3010 3010 3010 3011 3011 3011 3012 3012 3012 3012 3012 3012 3013 3013 3013 3013 3013 3012 3011 3010 3008 3006